Regional Weather Roundup
Issued by NWS Wakefield, VA

Home | Current Version | Previous Version | Graphics & Text | Print | Product List | Glossary On
Versions: 1 2 3 4 5 6 7 8 9 10 11 12 13 14 15 16 17 18 19 20 21 22 23 24 25 26 27 28 29 30 31 32 33 34 35 36 37 38 39 40 41 42 43 44 45 46 47 48 49 50
000
ASUS41 KAKQ 260015
RWRAKQ

REGIONAL WEATHER ROUNDUP
NATIONAL WEATHER SERVICE WAKEFIELD VA
800 PM EDT MON SEP 25 2017

Note: "fair" indicates few or no clouds below 12,000 feet with no
significant weather and/or obstructions to visibility. * = Denotes
station may not report precipitation (e.g., rain,snow,etc.),
thunder or fog.

VAZ042-051-052>054-056-260100-
NORTHERN VIRGINIA

CITY           SKY/WX    TMP DP  RH WIND       PRES   REMARKS
WASH NATIONAL  MOCLDY    82  69  64 E6        29.99S
DULLES         MOCLDY    78  68  71 E6        29.99S
FORT BELVOIR   PTCLDY    73  68  84 CALM      29.98S
QUANTICO       PTCLDY    80  72  76 E7        29.98F
FREDERICKSBRG* MOCLDY    79  69  70 CALM      29.96F
STAFFORD*      MOCLDY    76  69  78 NE3       30.02S
WARRENTON      PTCLDY    77  65  65 E5        29.99S
CULPEPER*      PTCLDY    79  69  70 CALM      29.99S
MANASSAS*      MOCLDY    75  69  81 CALM      29.99S
LEESBURG*      MOCLDY    82  70  65 SE6       30.01S
WINCHESTER     MOCLDY    72  66  83 CALM      30.02R
FRONT ROYAL*   PTCLDY    75  68  78 CALM      30.00S
LURAY*         MOCLDY    77  68  73 N3        30.01S
$$

VAZ048-049-060>072-079>083-260100-
CENTRAL AND SOUTH CENTRAL VIRGINIA

CITY           SKY/WX    TMP DP  RH WIND       PRES   REMARKS
RICHMOND       MOCLDY    76  68  76 E5        29.96R
CHESTERFIELD*  NOT AVBL
PETERSBURG*    CLEAR     71  64  79 E3        29.96S
HANOVER        CLEAR     74  67  78 CALM      29.98R
TAPPAHANNOCK*  CLEAR     75  63  65 CALM      29.98R
QUINTON*       FAIR      74  70  88 E5        29.96R
CHARLOTTSVILLE CLOUDY    79  67  66 NE3       29.99S
GORDONSVILLE*  CLOUDY    74  70  89 CALM      29.98S
ORANGE*        CLOUDY    72  68  88 CALM      29.98S
LOUISA*          N/A     70  66  88 CALM      29.98S
BUMPASS*       FAIR      73  70  89 CALM      29.98S
FARMVILLE*     PTCLDY    77  68  74 N5        29.96S
CREWE*         FAIR      73  68  82 CALM      29.96S
FORT PICKETT*  FAIR      71  65  80 E3        29.97R
CHASE CITY*    FAIR      76  63  64 NE3       29.96S
CLARKSVILLE*   FAIR      77  63  61 NE6       29.94S
SOUTH HILL*    CLEAR     74  67  77 CALM      30.01R
LAWRENCEVILLE* FAIR      74  67  79 CALM      29.95S
EMPORIA*       CLEAR     72  68  88 CALM      29.97R
$$

VAZ088>098-260100-
SOUTHEAST VIRGINIA

CITY           SKY/WX    TMP DP  RH WIND       PRES   REMARKS
NORFOLK        CLOUDY    72  69  90 NE15      29.95S
VIRGINIA BEACH CLOUDY    71  66  84 NE13      29.93F
NORFOLK NAVAL  CLOUDY    73  67  81 NE14G22   29.96S
WEST POINT*    CLEAR     73  68  83 NE3       29.98R
SALUDA*        FAIR      73  71  91 E7        29.97R
NEWPORT NEWS   MOCLDY    72  68  87 E6        29.96S
LANGLEY AFB    CLOUDY    73  69  87 E12       29.95S
FORT EUSTIS    PTCLDY    73  68  85 E7        29.94R
WILLIAMSBURG*  CLEAR     73  72  94 CALM      29.97R
HR EXEC AP*    CLOUDY    72  68  87 NE8       29.95F
FRANKLIN*      MOCLDY    71  67  87 NE6       29.95S
US460-WAKEFLD  CLEAR     72  70  93 CALM      29.96R
$$

VAZ020-022-025-037-045-260100-
WEST CENTRAL AND SOUTHWEST VIRGINIA

CITY           SKY/WX    TMP DP  RH WIND       PRES   REMARKS
STAUNTON*      CLOUDY    74  65  75 CALM      30.04S
WAYNESBORO*    CLOUDY    76  68  76 E5        30.03S
HOT SPRINGS VA PTCLDY    68  58  68 CALM      30.16F
LYNCHBURG      PTCLDY    75  66  73 VRB5      29.99S
DANVILLE       CLEAR     74  66  76 NE5       29.95S
SOUTH BOSTON*  FAIR      76  64  65 NE3       29.95S
MARTINSVILLE   CLEAR     74  64  71 CALM      30.00S
ROANOKE        PTCLDY    78  65  63 N5        30.02S
BLACKSBURG     CLEAR     70  64  80 CALM      30.09S
DUBLIN*        CLEAR     73  64  71 N3        30.08S
MARION*        CLEAR     69  60  71 CALM      30.10F
HILLSVILLE*    CLEAR     68  59  74 N5        30.08S
RICHLANDS*     FAIR      73  54  51 E3        30.09S
WISE*          PTCLDY    72  59  64 CALM      30.09S
ABINGDON*      CLEAR     76  58  53 E3        30.05S
$$

MDZ021>025-VAZ099-100-260100-
SOUTHERN MARYLAND AND THE DELMARVA PENINSULA

CITY           SKY/WX    TMP DP  RH WIND       PRES   REMARKS
PATUXENT RIVER MOCLDY    77  68  73 E9        29.97F
BAY BRIDGE APT PTCLDY    79  68  69 E5        29.99S
LEONARDTOWN    CLEAR     73  68  83 CALM      30.00S
DOVER          PTCLDY    72  68  88 SE5       29.99S
GEORGETOWN     CLOUDY    71  67  87 E6        30.01F
EASTON         PTCLDY    75  64  69 E5        30.03S
CAMBRIDGE      CLEAR     75  66  73 E6        29.98F
SALISBURY      PTCLDY    70  68  93 NE6       29.99F
OCEAN CITY     CLOUDY    69  69 100 NE9       30.00S FOG
WALLOPS ISLAND CLOUDY    70  69  97 NE13      29.99R
ACCOMACK*      CLOUDY    71  69  93 E7G16     29.98S
$$

NCZ012>017-030>032-260100-
NORTH CENTRAL AND EASTERN NORTH CAROLINA

CITY           SKY/WX    TMP DP  RH WIND       PRES   REMARKS
ROANOKE RAPIDS FAIR      73  68  83 NE7       29.94S
RALEIGH        MOCLDY    75  68  78 NE3       29.93S
ELIZABETH CITY CLOUDY    73  70  90 NE16      29.92S
AHOSKIE*       PTCLDY    72  67  84 N8        29.93S
EDENTON*       CLOUDY    74  69  84 CALM      29.91F
CURRITUCK*     CLOUDY    72  68  89 NE13G21   29.94R
KILL DEVIL HLS NOT AVBL
MANTEO         CLOUDY    70  70  98 NE17G24   29.89S
CAPE HATTERAS  CLOUDY    76  74  93 NE12G23   29.83S
TARBORO*       NOT AVBL
GOLDSBORO      CLOUDY    77  74  88 N9        29.88S
WASHINGTON     CLOUDY    75  69  81 NE10      29.89S
GREENVILLE     CLOUDY    77  68  73 NE10G16   29.92S
NEW BERN       CLOUDY    75  71  87 N10       29.88R FOG
WILMINGTON     CLOUDY    77  71  82 N10       29.85S
$$

VAZ048-260100-
ELSEWHERE

CITY           SKY/WX    TMP DP  RH WIND       PRES   REMARKS
HARRISBURG PA  MOCLDY    77  74  90 CALM      30.00R
BALTIMORE      MOCLDY    80  68  66 SE6       29.98S
ANNAPOLIS      PTCLDY    82  72  71 E9        29.99R
ANDREWS AFB    PTCLDY    77  66  69 E6        29.98F
PHILADELPHIA   MOCLDY    78  65  63 SE8       30.02R
HENDERSON NC   CLEAR     74  62  65 CALM      29.95R
GREENSBORO     MOCLDY    77  66  68 NE6       29.95S
ROCKY MOUNT    PTCLDY    74  68  81 NE8       29.92S
$$

VAZ100-260100-
MARINE

STATION/POSITION TIME  TEMP    WIND        PRES    WAVE   SWELL
                       AIR SEA DIR/SP/G            HT/PER HT/PER
                 (UTC) (F)     (DEG/KT/KT) (MB)    (FT/S) (FT/S)
BRANDYWINE LGT   2348          100/ 11/ 15   N/A
CAPE MAY NJ      2348           90/  6/  9   N/A
LEWES DE         2348          110/  9/ 11   N/A
15NM E FENWICK I 2250   68 72   30/ 12/ 16 1016.2    4/11   3/11
OCEAN-CITY-INLET 2348           90/  8/ 11   N/A
WACHAPREAGUE VA  2348           50/ 13/ 17   N/A
THOMAS POINT MD  0000   79 77  110/  9/ 10   N/A
GOOSES REEF MD   0000   79 77   90/ 10/ 12 1016.1    0
COVE POINT MD    2348           90/ 11/ 13   N/A
SOLOMONS ISLAND  2348           70/  9/ 12   N/A
BISHOPS HEAD MD  2348           70/ 10/ 12   N/A
PINEY POINT MD   2348          100/  3/  3   N/A
POTOMAC MD       0000   77 77  100/ 10/ 12 1014.3    1/ 3
CAMBRIDGE MD     2330   78 80              1016.3F
LEWISETTA VA     2348          170/  5/  6   N/A
RAPPAHANNOCK LGT 2348           50/ 16/ 18   N/A
STINGRAY PT      0000   74 77  100/ 14/ 16 1015.3    2/ 3
YORK RVR RNG VA  2348           80/ 15/ 18   N/A
YORKTOWN VA      2348           70/ 12/ 15   N/A
JAMESTOWN VA     0000      80  100/  6/  8   N/A     0
DOMINION TERM VA 2348           60/ 12/ 18   N/A
KIPTOPEKE VA     2348           80/ 11/ 17   N/A
CHES BAY BRIDGE  2348           50/ 20/ 23   N/A
CAPE HENRY VA    2348           40/ 20/ 23   N/A
WILLOUBY STN VA  2348           70/ 16/ 18   N/A
S CRANEY ISL VA  2348           60/ 14/ 17   N/A
CAPE HENRY BUOY  0000      74                N/A     6/14   3/14
1ST LANDING BUOY 0000   72 76              1014.2    3/ 4
64NM E OF VA BCH 2350   71 70   50/ 16/ 17 1013.3R  14/15  13/15
DUCK PIER NC     2348           30/ 24/ 28   N/A
44100 DUCK FRF   2335      74                N/A     8/14   5/14
44056 DUCK FRF   2330      76                N/A     8/14   5/14
OREGON INLET NC  2348           30/ 18/ 23   N/A
HATTERAS NC      2348           40/ 18/ 28   N/A
DIAMOND SHLS NC  2350   75 79   30/ 27/ 31 1008.2R  15/14  13/14
CAPE LOOKOUT NC  0000   75      20/ 23/ 28 1009.3S
$$



USA.gov is the U.S. government's official web portal to all federal, state and local government web resources and services.